Weather observations for the past three days for
Rota Island, N. Mariana Is, Rota International Airport
Imperial (Metric)
Date Time (chst) Wind (mph) Vis. (mi.) Weather Sky Cond. Temperature (ºF) Relative Humidity Wind Chill (°F) Heat Index (°F) Pressure Precipitation (in)
Air Dwpt 6 hour altimeter (in) sea level (mb) 1 hr 3 hr 6 hr
Max. Min.
05 10:50 E 15 G 20 7.00 Mostly Cloudy BKN013 82.4 77 84% 91 29.9 0.0
05 09:50 E 14 G 18 7.00 Mostly Cloudy BKN013 82.4 75.2 79% 89 29.91 0.0
05 08:50 E 12 G 16 7.00 Mostly Cloudy BKN013 80.6 75.2 84% 86 29.91 0.0
05 07:50 E 9 G 14 7.00 Mostly Cloudy BKN012 BKN140 78.8 75.2 89% 82 29.9 0.0
05 06:50 E 13 7.00 Mostly Cloudy BKN012 BKN140 78.8 75.2 89% 82 29.89 0.0
04 17:50 E 16 G 22 7.00 Overcast BKN012 OVC120 80.6 75.2 84% 86 29.86 0.0
04 16:50 E 15 G 18 7.00 Overcast SCT012 OVC120 82.4 77 84% 91 29.85 0.0
04 15:50 E 16 G 21 7.00 Overcast BKN012 OVC120 82.4 78.8 89% 92 29.85 0.0
04 14:50 E 17 G 24 7.00 Light Rain Fog/Mist BKN010 OVC100 82.4 78.8 89% 92 29.85 0.0
04 13:50 E 14 G 21 7.00 Mostly Cloudy SCT013 BKN120 82.4 77 84% 91 29.87 0.0
04 12:50 E 15 G 22 7.00 Overcast BKN011 OVC120 82.4 77 84% 91 29.88 0.0
04 11:50 E 14 G 20 7.00 Overcast BKN011 OVC120 82.4 77 84% 91 29.9 0.0
04 10:50 E 14 G 22 7.00 Overcast BKN011 OVC120 82.4 77 84% 91 29.91 0.0
04 09:50 E 15 G 21 7.00 Overcast BKN012 OVC120 80.6 78.8 94% 88 29.93 0.0
04 08:50 E 9 6.00 Light Rain Fog/Mist BKN010 OVC120 80.6 77 89% 87 29.91 0.0
04 07:50 E 13 G 20 7.00 Overcast BKN012 OVC120 80.6 77 89% 87 29.9 0.0
04 06:50 E 13 G 17 7.00 Light Rain BKN011 BKN120 78.8 77 94% 83 29.88 0.0
03 17:50 E 12 7.00 Mostly Cloudy BKN014 BKN100 82.4 75.2 79% 89 29.84 0.0
03 16:50 E 14 G 21 7.00 Mostly Cloudy BKN014 BKN100 84.2 77 79% 94 29.82 0.0
03 15:50 E 16 G 18 7.00 Mostly Cloudy BKN014 82.4 78.8 89% 92 29.82 0.0
03 14:50 E 14 G 18 7.00 Mostly Cloudy BKN015 82.4 77 84% 91 29.83 0.0
03 13:50 E 21 G 30 7.00 Mostly Cloudy and Breezy BKN015 82.4 77 84% 91 29.84 0.0
03 12:50 E 20 G 28 7.00 Mostly Cloudy BKN016 80.6 77 89% 87 29.88 0.0
03 11:50 E 18 G 25 7.00 Mostly Cloudy BKN018 80.6 75.2 84% 86 29.88 0.0
03 10:50 E 17 G 23 7.00 Mostly Cloudy BKN015 80.6 75.2 84% 86 29.88 0.0
03 09:50 E 16 G 21 7.00 Mostly Cloudy BKN015 80.6 75.2 84% 86 29.89 0.0
03 08:50 E 14 G 18 7.00 Mostly Cloudy BKN014 78.8 73.4 84% 82 29.89 0.0
03 07:50 E 12 7.00 Mostly Cloudy BKN014 BKN100 77 73.4 89% 78 29.87 0.0
03 06:50 E 9 7.00 Mostly Cloudy FEW014 BKN100 77 73.4 89% 78 29.84 0.0
02 17:50 NE 18 G 26 7.00 A Few Clouds FEW016 80.6 73.4 79% 85 29.83 0.0
02 16:50 NE 22 G 30 7.00 Partly Cloudy and Breezy SCT015 82.4 75.2 79% 89 29.82 0.0
02 14:58 NE 21 G 28 7.00 Mostly Cloudy and Breezy BKN015 82.4 75.2 79% 89 29.82 0.0
02 13:50 NE 20 G 25 7.00 Mostly Cloudy BKN015 82.4 75.2 79% 89 29.83 0.0
02 12:50 E 20 G 24 7.00 Mostly Cloudy BKN014 82.4 73.4 74% 88 29.85 0.0
02 11:50 E 17 G 21 7.00 Mostly Cloudy BKN014 82.4 75.2 79% 89 29.87 0.0
Date Time (chst) Wind (mph) Vis. (mi.) Weather Sky Cond. Air Dwpt Max. Min. Relative Humidity Wind Chill (°F) Heat Index (°F) altimeter (in) sea level (mb) 1 hr 3 hr 6 hr
6 hour
Temperature (ºF) Pressure Precipitation (in)